Regional Weather Roundup
Issued by NWS

Home | Current Version | Previous Version | Graphics & Text | Print | Product List | Glossary On
Versions: 1 2 3 4 5 6 7 8 9 10 11 12 13 14 15 16 17 18 19 20 21 22 23 24 25 26 27 28 29 30 31 32 33 34 35 36 37 38 39 40 41 42 43 44 45 46 47 48 49 50
000
ASUS43 KLOT 240110
RWRIL

ILLINOIS REGIONAL WEATHER ROUNDUP
NATIONAL WEATHER SERVICE CHICAGO/ROMEOVILLE IL
800 PM CDT TUE SEP 23 2014

NOTE: "FAIR" INDICATES FEW OR NO CLOUDS BELOW 12,000 FEET WITH NO
SIGNIFICANT WEATHER AND/OR OBSTRUCTIONS TO VISIBILITY.

* THESE STATIONS ARE NOT UNDER NWS QUALITY CONTROL. THEY ALSO MAY NOT
  REPORT WEATHER SUCH AS PRECIPITATION OR FOG.

ILZ001-002-007-009-015-016-024-240200-
NORTHWEST ILLINOIS

CITY           SKY/WX    TMP DP  RH WIND       PRES   REMARKS
MOLINE         CLOUDY    60  50  69 SE5       30.23S
STERLING*      PTCLDY    57  48  72 S3        30.25S
SAVANNA*       MOCLDY    62  49  61 SE5       30.24S
$$

ILZ003-004-008-010-011-017-018-240200-
NORTH CENTRAL ILLINOIS

CITY           SKY/WX    TMP DP  RH WIND       PRES   REMARKS
ROCKFORD       MOCLDY    62  50  64 SE5       30.29R
DE KALB*       MOCLDY    58  48  69 SE6       30.28S
PERU*          MOCLDY    64  50  60 E5        30.27R
$$

ILZ005-006-012>014-019>023-240200-
NORTHEAST ILLINOIS

CITY           SKY/WX    TMP DP  RH WIND       PRES   REMARKS
CHICAGO-OHARE  PTCLDY    65  48  54 E8        30.29R
CHICAGO-MIDWAY PTCLDY    66  50  56 E8        30.29R
AURORA         PTCLDY    59  49  69 E3        30.28S
LANSING*       CLEAR     62  49  64 E6        30.29S
JOLIET*        PTCLDY    58  50  75 E3        30.29R
WAUKEGAN       CLEAR     59  51  75 SE3       30.29R
DUPAGE AIRPORT CLEAR     58  52  80 CALM      30.28R
KANKAKEE*      CLEAR     58  51  77 CALM      30.29R
WHEELING       CLEAR     62  49  62 SE3       30.31R
ROMEOVILLE*    PTCLDY    61  48  62 E6        30.28S
NORTHERLY ISL    N/A     62  57  83 SE2         N/A
$$

LMZ740>746-240200-
SOUTHERN LAKE MICHIGAN

STATION/POSITION SKY/WX   TEMP    WIND        PRES    VSBY  WAVE
                          AIR SEA DIR/SP/G                  HT/PER
                          (F)     (DEG/KT/KT) (MB)    (MI)  (FT/S)
SOUTHERN BUOY              62 62  150/  6/  6 1026.3R         1
WAUKEGAN HARBOR            60     190/  5/  6   N/A
BURNHAM HARBOR             62     140/  3       N/A
CALUMET HARBOR                    100/  4/  5   N/A
MICHIGAN CITY 6N           64 64   80/  8/ 10   N/A           1
ST. JOSEPH                 64 65   80/  4/  6   N/A           0
$$

ILZ025>027-034>036-040-047-049-050-058-095>099-240200-
WEST-CENTRAL ILLINOIS

CITY           SKY/WX    TMP DP  RH WIND       PRES   REMARKS
QUINCY         MOCLDY    63  52  67 SE6       30.21F
GALESBURG*     CLOUDY   N/A N/A N/A CALM      30.23S
MACOMB*        CLOUDY    59  52  76 CALM      30.25R
JACKSONVILLE*  PTCLDY    65  53  65 SE6       30.25R
PITTSFIELD*    MOCLDY    62  53  72 CALM      30.24S
$$

ILZ028>032-037-038-041>044-048-051>054-059>061-240200-
CENTRAL ILLINOIS

CITY           SKY/WX    TMP DP  RH WIND       PRES   REMARKS
PONTIAC        MOCLDY    61  50  67 E5        30.27R
BLOOMINGTON    MOCLDY    61  49  64 SE7       30.28R
DECATUR        MOCLDY    61  49  64 SE6       30.26S
PEORIA         MOCLDY    65  53  65 E5        30.25R
LACON*         MOCLDY    58  52  81 CALM      30.25S
LINCOLN*       MOCLDY    62  50  65 CALM      30.23S
SPRINGFIELD    MOCLDY    64  53  67 SE3       30.25R
TAYLORVILLE    MOCLDY    59  52  77 SE3       30.25S
$$

ILZ033-039-045-046-055>057-062-063-240200-
EAST-CENTRAL ILLINOIS

CITY           SKY/WX    TMP DP  RH WIND       PRES   REMARKS
CHAMPAIGN      MOCLDY    61  49  64 NE6       30.27S
DANVILLE*      CLEAR     59  50  71 NE3       30.25S
RANTOUL*       PTCLDY    62  50  65 E5        30.29R
MATTOON        MOCLDY    60  50  69 SE5       30.26R
PARIS*         PTCLDY    54  52  94 CALM      30.28R
$$

ILZ079-100>102-240200-
SOUTHWEST ILLINOIS

CITY           SKY/WX    TMP DP  RH WIND       PRES   REMARKS
ALTON          CLEAR     57  52  82 E5        30.24
BELLEVILLE     PTCLDY    61  53  76 CALM      30.23R
CAHOKIA*       PTCLDY    61  52  72 CALM      30.23S
SPARTA*        PTCLDY    60  49  68 CALM      30.24R
$$

ILZ064>066-069>071-074>076-080>082-084>086-088>090-092>094-240200-
SOUTH-CENTRAL ILLINOIS

CITY           SKY/WX    TMP DP  RH WIND       PRES   REMARKS
CARBONDALE     PTCLDY    57  50  77 NE5       30.22S
CAIRO*         CLEAR     59  52  78 CALM      30.20S
EFFINGHAM*     MOCLDY    57  51  82 CALM      30.26R
MARION         CLEAR     61  52  72 CALM      30.23S
MT. VERNON     PTCLDY    54  48  82 CALM      30.25R
CENTRALIA*     PTCLDY    56  51  82 CALM      30.25R
SALEM*         PTCLDY    59  54  84 CALM      30.25R
METROPOLIS*    CLEAR     55  51  85 CALM      30.20S
$$

ILZ067-068-072-073-078-083-087-091-240200-
SOUTHEAST ILLINOIS

CITY           SKY/WX    TMP DP  RH WIND       PRES   REMARKS
LAWRENCEVILLE  CLEAR     57  51  80 NE6       30.26R
FLORA*         CLEAR     63  49  61 NE5       30.26R
FAIRFIELD*     PTCLDY   N/A N/A N/A CALM      30.25R
HARRISBURG*    PTCLDY    62  48  59 NE6       30.24S
ROBINSON*      CLEAR     60  52  74 CALM      30.27S
CARMI*         PTCLDY    59  52  79 NE5       30.24S
$$

ABBREVIATIONS USED IN REMARKS
   TC - TEMPERATURE IN CELSIUS
  WCI - WIND CHILL INDEX
   HX - HEAT INDEX
  VSB - VISIBILITY
$$



USA.gov is the U.S. government's official web portal to all federal, state and local government web resources and services.